Coolangatta Observation History
Time Wind Speed Temp Pressure Rel. Hum Rain
29/07:30am NNW 14-21 kts 25.5°c 1013.1 hPa 58% 0.0mm
29/07:00am NNW 16-21 kts 24.5°c 1013.0 hPa 61% 0.0mm
29/06:30am NNW 13-17 kts 24.0°c 1013.1 hPa 66% 0.0mm
29/06:00am NNW 14-19 kts 22.9°c 1013.0 hPa 70% 0.0mm
29/05:30am NNW 12-17 kts 21.9°c 1012.8 hPa 75% 0.0mm
29/05:00am NNW 11-15 kts 21.6°c 1012.6 hPa 78% 0.0mm
29/04:30am NW 11-14 kts 21.4°c 1012.4 hPa 78% 0.0mm
29/04:00am NNW 10-13 kts 21.4°c 1012.3 hPa 79% 0.0mm
29/03:30am NNW 10-13 kts 21.5°c 1012.2 hPa 79% 0.0mm
29/03:00am NNW 10-15 kts 21.6°c 1012.1 hPa 79% 0.0mm
29/02:30am NNW 10-15 kts 21.6°c 1012.4 hPa 79% 0.0mm
29/02:00am NNW 11-14 kts 21.9°c 1012.7 hPa 79% 0.0mm
29/01:30am NNW 11-17 kts 22.2°c 1012.9 hPa 77% 0.0mm
29/01:00am NNW 9-12 kts 22.0°c 1013.1 hPa 77% 0.0mm
29/12:30am NNW 9-12 kts 22.3°c 1013.4 hPa 76% 0.0mm
29/12:00am NNW 9-11 kts 22.3°c 1013.9 hPa 76% 0.0mm
Time Wind Speed Temp Pressure Rel. Hum Rain
28/11:30pm NNW 8-12 kts 22.6°c 1014.2 hPa 75% 0.0mm
28/11:00pm NNW 8-11 kts 22.5°c 1014.4 hPa 75% 0.0mm
28/10:30pm NNW 9-14 kts 22.6°c 1014.4 hPa 74% 0.0mm
28/10:00pm NNW 10-13 kts 22.8°c 1014.6 hPa 73% 0.0mm
28/09:30pm NNW 12-16 kts 23.3°c 1014.7 hPa 74% 0.0mm
28/09:00pm NNW 14-18 kts 23.4°c 1014.5 hPa 72% 0.0mm
28/08:30pm NNW 14-18 kts 23.5°c 1014.3 hPa 70% 0.0mm
28/08:00pm NNW 16-21 kts 23.5°c 1014.1 hPa 71% 0.0mm
28/07:30pm N 17-22 kts 23.4°c 1013.9 hPa 73% 0.0mm
28/07:00pm N 14-19 kts 23.4°c 1013.7 hPa 76% 0.0mm
28/06:30pm N 15-19 kts 23.6°c 1013.6 hPa 75% 0.0mm
28/06:00pm N 14-18 kts 24.3°c 1013.3 hPa 71% 0.0mm
28/05:30pm N 15-18 kts 24.6°c 1013.1 hPa 68% 0.0mm
28/05:00pm N 15-18 kts 25.1°c 1012.9 hPa 66% 0.0mm
28/04:30pm N 15-19 kts 25.6°c 1013.0 hPa 63% 0.0mm
28/04:00pm N 16-23 kts 26.2°c 1013.0 hPa 61% 0.0mm
28/03:30pm N 15-19 kts 26.4°c 1013.1 hPa 61% 0.0mm
28/03:00pm N 16-20 kts 26.9°c 1013.5 hPa 60% 0.0mm
28/02:30pm N 16-20 kts 26.1°c 1013.8 hPa 60% 0.0mm
28/02:00pm N 16-19 kts 26.8°c 1014.2 hPa 57% 0.0mm
28/01:30pm N 15-18 kts 26.9°c 1014.4 hPa 57% 0.0mm
28/01:00pm N 15-19 kts 26.9°c 1014.7 hPa 57% 0.0mm
28/12:30pm N 17-20 kts 26.3°c 1015.0 hPa 58% 0.0mm
28/12:00pm N 15-18 kts 26.6°c 1015.4 hPa 55% 0.0mm
28/11:30am N 16-19 kts 26.9°c 1015.6 hPa 56% 0.0mm
28/11:00am N 14-17 kts 26.7°c 1016.0 hPa 56% 0.0mm
28/10:30am N 14-18 kts 26.4°c 1016.1 hPa 57% 0.0mm
28/10:00am N 14-17 kts 25.7°c 1016.6 hPa 55% 0.0mm
28/09:30am N 13-16 kts 26.2°c 1016.9 hPa 54% 0.0mm
28/09:00am N 13-17 kts 25.2°c 1017.1 hPa 55% 0.0mm
28/08:30am N 13-16 kts 25.2°c 1017.3 hPa 55% 0.0mm
28/08:00am N 11-14 kts 25.0°c 1017.4 hPa 56% 0.0mm
28/07:30am N 9-15 kts 24.3°c 1017.3 hPa 58% 0.0mm
28/07:00am NNW 7-9 kts 23.5°c 1017.2 hPa 62% 0.0mm
28/06:30am WNW 5-6 kts 22.0°c 1017.2 hPa 74% 0.0mm
28/06:00am WSW 3-5 kts 19.3°c 1017.0 hPa 88% 0.0mm
28/05:30am WSW 3 kts 17.6°c 1016.7 hPa 95% 0.0mm
28/05:00am WSW 2-3 kts 16.0°c 1016.6 hPa 94% 0.0mm
28/04:30am WSW 3 kts 16.0°c 1016.5 hPa 93% 0.0mm
28/04:00am WSW 3-4 kts 16.2°c 1016.4 hPa 92% 0.0mm
28/03:30am WSW 3-4 kts 17.0°c 1016.4 hPa 92% 0.0mm
28/03:00am WSW 3-4 kts 17.3°c 1016.4 hPa 92% 0.0mm
28/02:30am WSW 4-5 kts 17.4°c 1016.5 hPa 92% 0.0mm
28/02:00am WSW 3-4 kts 17.6°c 1016.6 hPa 92% 0.0mm
28/01:30am WSW 4-5 kts 17.8°c 1016.7 hPa 91% 0.0mm
28/01:00am WSW 4-5 kts 17.9°c 1017.1 hPa 90% 0.0mm
28/12:30am WSW 4-5 kts 18.0°c 1017.5 hPa 89% 0.0mm
28/12:00am WSW 4-5 kts 18.1°c 1017.7 hPa 88% 0.0mm
Time Wind Speed Temp Pressure Rel. Hum Rain
27/11:30pm WSW 4-5 kts 18.6°c 1018.1 hPa 86% 0.0mm
27/11:00pm WSW 5-6 kts 18.8°c 1018.5 hPa 87% 0.0mm
27/10:30pm WSW 4-6 kts 18.9°c 1018.5 hPa 86% 0.0mm
27/10:00pm W 4-5 kts 19.2°c 1018.7 hPa 82% 0.0mm
27/09:30pm NE 5-8 kts 20.9°c 1018.8 hPa 71% 0.0mm
27/09:00pm ENE 7-9 kts 22.9°c 1018.7 hPa 69% 0.0mm
27/08:30pm ENE 7-10 kts 23.0°c 1018.5 hPa 69% 0.0mm
27/08:00pm ENE 7-10 kts 23.0°c 1018.3 hPa 69% 0.0mm
27/07:30pm ENE 7-11 kts 23.2°c 1018.2 hPa 69% 0.0mm
27/07:00pm ESE 6-8 kts 23.2°c 1018.2 hPa 65% 0.0mm
27/06:30pm ENE 7-9 kts 23.5°c 1017.9 hPa 62% 0.0mm
27/06:00pm ENE 7-9 kts 24.1°c 1017.6 hPa 60% 0.0mm
27/05:30pm ENE 8-11 kts 24.7°c 1017.4 hPa 59% 0.0mm
27/05:00pm ENE 10-14 kts 24.9°c 1017.1 hPa 56% 0.0mm
27/04:30pm E 10-17 kts 25.5°c 1017.0 hPa 53% 0.0mm
27/04:00pm ENE 12-14 kts 25.7°c 1016.6 hPa 52% 0.0mm
27/03:30pm ENE 10-13 kts 26.1°c 1016.4 hPa 49% 0.0mm
27/03:00pm ENE 11-14 kts 26.3°c 1016.6 hPa 49% 0.0mm
27/02:30pm NE 10-13 kts 26.0°c 1016.8 hPa 51% 0.0mm
27/02:00pm ENE 11-14 kts 27.4°c 1017.1 hPa 47% 0.0mm
27/01:30pm ENE 12-15 kts 27.0°c 1017.2 hPa 48% 0.0mm
27/01:00pm ENE 13-17 kts 27.3°c 1017.4 hPa 48% 0.0mm
27/12:30pm ENE 13-16 kts 26.8°c 1017.7 hPa 51% 0.0mm
27/12:00pm ENE 13-16 kts 27.1°c 1017.9 hPa 51% 0.0mm
27/11:30am ENE 12-15 kts 26.4°c 1018.1 hPa 53% 0.0mm
27/11:00am ENE 13-16 kts 26.9°c 1018.4 hPa 55% 0.0mm
27/10:30am ENE 13-17 kts 26.1°c 1018.4 hPa 55% 0.0mm
27/10:00am E 13-16 kts 27.3°c 1018.6 hPa 56% 0.0mm
27/09:30am E 11-15 kts 26.0°c 1018.5 hPa 59% 0.0mm
27/09:00am ESE 11-16 kts 26.2°c 1018.4 hPa 59% 0.0mm
27/08:30am E 7-11 kts 26.7°c 1018.2 hPa 56% 0.0mm
27/08:00am SE 8-11 kts 26.2°c 1018.1 hPa 56% 0.0mm
27/07:30am CALM 0-4 kts 24.4°c 1017.6 hPa 63% 0.0mm
27/07:00am WSW 3-5 kts 23.7°c 1017.1 hPa 67% 0.0mm
27/06:30am SW 3-5 kts 22.2°c 1016.6 hPa 75% 0.0mm
27/06:00am SW 3-4 kts 20.1°c 1016.3 hPa 86% 0.0mm
27/05:30am SW 3-4 kts 18.5°c 1015.8 hPa 92% 0.0mm
27/05:00am SSW 3 kts 17.2°c 1015.6 hPa 93% 0.0mm
27/04:30am SW 1-3 kts 17.6°c 1015.3 hPa 93% 0.0mm
27/04:00am CALM 0-3 kts 17.7°c 1014.8 hPa 92% 0.0mm
27/03:30am CALM 0 kts 17.8°c 1014.6 hPa 91% 0.0mm
27/03:00am WSW 1-3 kts 18.1°c 1014.4 hPa 91% 0.0mm
27/02:30am WSW 2-3 kts 18.0°c 1014.3 hPa 90% 0.0mm
27/02:00am CALM 0-4 kts 18.2°c 1014.3 hPa 91% 0.0mm
27/01:30am CALM 0 kts 17.9°c 1014.4 hPa 89% 0.0mm
27/01:00am CALM 0 kts 18.3°c 1014.5 hPa 88% 0.0mm
27/12:30am CALM 0-1 kts 18.6°c 1014.7 hPa 87% 0.0mm
27/12:00am W 3-4 kts 18.8°c 1015.0 hPa 87% 0.0mm